| time (UTC) | temp F | wind direction | speed MPH | gust MPH | rain 1hr in | rain 24hr in | rain mn in | humidity % | barometer mb |
| 20260905190304 | 79 | 321 | 1.0 | 6.0 | 0.00 | 0.00 | 0.00 | 68 | 1012.0 |
| 20260905185806 | 79 | 266 | 1.0 | 7.0 | 0.00 | 0.00 | 0.00 | 69 | 1012.1 |
| 20260905184305 | 80 | 36 | 3.0 | 5.0 | 0.00 | 0.00 | 0.00 | 68 | 1012.3 |
| 20260905182804 | 81 | 57 | 3.0 | 6.0 | 0.00 | 0.00 | 0.00 | 66 | 1012.4 |
| 20260905182306 | 81 | 7 | 1.0 | 6.0 | 0.00 | 0.00 | 0.00 | 68 | 1012.3 |
| 20260905181804 | 80 | 258 | 3.0 | 6.0 | 0.00 | 0.00 | 0.00 | 70 | 1012.5 |
| 20260905181304 | 79 | 358 | 2.0 | 5.0 | 0.00 | 0.00 | 0.00 | 71 | 1012.5 |
| 20260905180304 | 78 | 299 | 2.0 | 6.0 | 0.00 | 0.00 | 0.00 | 69 | 1012.5 |
| 20260905175804 | 79 | 34 | 2.0 | 7.0 | 0.00 | 0.00 | 0.00 | 71 | 1012.6 |
| 20260905175306 | 79 | 54 | 2.0 | 7.0 | 0.00 | 0.00 | 0.00 | 70 | 1012.6 |
| 20260905174805 | 79 | 27 | 2.0 | 7.0 | 0.00 | 0.00 | 0.00 | 71 | 1012.5 |
| 20260905171806 | 78 | 358 | 0.0 | 3.0 | 0.00 | 0.00 | 0.00 | 68 | 1012.9 |
| 20260905171306 | 79 | 344 | 1.0 | 3.0 | 0.00 | 0.00 | 0.00 | 71 | 1013.0 |
| 20260905170305 | 77 | 311 | 1.0 | 5.0 | 0.00 | 0.00 | 0.00 | 73 | 1013.1 |
| 20260905164305 | 77 | 342 | 1.0 | 3.0 | 0.00 | 0.00 | 0.00 | 74 | 1013.1 |
| 20260905163804 | 78 | 355 | 1.0 | 3.0 | 0.00 | 0.00 | 0.00 | 76 | 1013.2 |
| 20260905161804 | 77 | 327 | 2.0 | 7.0 | 0.00 | 0.00 | 0.00 | 70 | 1013.4 |
| 20260905160807 | 78 | 288 | 2.0 | 6.0 | 0.00 | 0.00 | 0.00 | 70 | 1013.5 |
| 20260905160305 | 77 | 270 | 2.0 | 6.0 | 0.00 | 0.00 | 0.00 | 71 | 1013.6 |
| 20260905154304 | 77 | 60 | 0.0 | 3.0 | 0.00 | 0.00 | 0.00 | 72 | 1013.7 |
| 20260905153304 | 76 | 215 | 1.0 | 3.0 | 0.00 | 0.00 | 0.00 | 75 | 1013.7 |
| 20260905151806 | 75 | 299 | 0.0 | 0.0 | 0.00 | 0.00 | 0.00 | 80 | 1013.6 |
| 20260905150804 | 75 | 299 | 0.0 | 3.0 | 0.00 | 0.00 | 0.00 | 80 | 1013.7 |
| 20260905150304 | 75 | 299 | 1.0 | 3.0 | 0.00 | 0.00 | 0.00 | 76 | 1013.7 |
| 20260905145806 | 75 | 303 | 0.0 | 3.0 | 0.00 | 0.00 | 0.00 | 76 | 1013.7 |
| 20260905143805 | 75 | 87 | 2.0 | 5.0 | 0.00 | 0.00 | 0.00 | 77 | 1013.4 |
| 20260905143304 | 75 | 103 | 2.0 | 5.0 | 0.00 | 0.00 | 0.00 | 78 | 1013.4 |
| 20260905142805 | 75 | 37 | 3.0 | 6.0 | 0.00 | 0.00 | 0.00 | 79 | 1013.3 |
| 20260905142306 | 75 | 51 | 3.0 | 6.0 | 0.00 | 0.00 | 0.00 | 79 | 1013.3 |
| 20260905141806 | 75 | 57 | 2.0 | 12.0 | 0.00 | 0.00 | 0.00 | 79 | 1013.3 |
| 20260905140805 | 75 | 33 | 4.0 | 12.0 | 0.00 | 0.00 | 0.00 | 78 | 1013.2 |
| 20260905140310 | 75 | 49 | 2.0 | 5.0 | 0.00 | 0.00 | 0.00 | 80 | 1013.2 |
| 20260905135306 | 75 | 29 | 2.0 | 9.0 | 0.00 | 0.00 | 0.00 | 80 | 1013.2 |
| 20260905133804 | 75 | 341 | 2.0 | 9.0 | 0.00 | 0.00 | 0.00 | 79 | 1013.2 |
| 20260905132305 | 75 | 32 | 2.0 | 8.0 | 0.00 | 0.00 | 0.00 | 81 | 1013.2 |
| 20260905125804 | 75 | 30 | 2.0 | 8.0 | 0.00 | 0.00 | 0.00 | 85 | 1012.9 |
| 20260905124805 | 74 | 54 | 2.0 | 6.0 | 0.00 | 0.00 | 0.00 | 86 | 1012.8 |
| 20260905124305 | 74 | 39 | 2.0 | 7.0 | 0.00 | 0.00 | 0.00 | 87 | 1012.7 |
| 20260905123806 | 74 | 51 | 2.0 | 7.0 | 0.00 | 0.00 | 0.00 | 89 | 1012.8 |
| 20260905123304 | 73 | 62 | 1.0 | 7.0 | 0.00 | 0.00 | 0.00 | 90 | 1012.9 |
| 20260905122806 | 73 | 59 | 0.0 | 3.0 | 0.00 | 0.00 | 0.00 | 91 | 1012.8 |
| 20260905121805 | 72 | 68 | 0.0 | 3.0 | 0.00 | 0.00 | 0.00 | 92 | 1012.8 |
| 20260905120805 | 72 | 78 | 1.0 | 3.0 | 0.00 | 0.00 | 0.00 | 93 | 1012.7 |
| 20260905115805 | 72 | 296 | 1.0 | 2.0 | 0.00 | 0.00 | 0.00 | 94 | 1012.8 |
| 20260905114304 | 71 | 5 | 1.0 | 3.0 | 0.00 | 0.00 | 0.00 | 96 | 1012.7 |
| 20260905113804 | 71 | 289 | 0.0 | 0.0 | 0.00 | 0.00 | 0.00 | 97 | 1012.6 |
| 20260905113304 | 71 | 289 | 0.0 | 0.0 | 0.00 | 0.00 | 0.00 | 97 | 1012.6 |
| 20260905112805 | 71 | 289 | 0.0 | 0.0 | 0.00 | 0.00 | 0.00 | 97 | 1012.5 |
| 20260905111804 | 71 | 289 | 0.0 | 0.0 | 0.00 | 0.00 | 0.00 | 97 | 1012.4 |
| 20260905110805 | 71 | 289 | 0.0 | 0.0 | 0.00 | 0.00 | 0.00 | 97 | 1012.2 |
| 20260905102806 | 71 | 289 | 0.0 | 0.0 | 0.00 | 0.01 | 0.00 | 97 | 1011.8 |
| 20260905101804 | 71 | 291 | 0.0 | 0.0 | 0.00 | 0.01 | 0.00 | 97 | 1011.8 |
| 20260905101304 | 71 | 291 | 0.0 | 0.0 | 0.00 | 0.01 | 0.00 | 97 | 1011.7 |
| 20260905100805 | 71 | 291 | 0.0 | 0.0 | 0.00 | 0.01 | 0.00 | 97 | 1011.7 |
| 20260905095306 | 72 | 291 | 0.0 | 2.0 | 0.00 | 0.01 | 0.00 | 97 | 1011.8 |
| 20260905094305 | 72 | 291 | 0.0 | 2.0 | 0.00 | 0.01 | 0.00 | 97 | 1011.5 |
| 20260905093304 | 72 | 291 | 0.0 | 2.0 | 0.00 | 0.01 | 0.00 | 96 | 1011.4 |
| 20260905092804 | 72 | 291 | 0.0 | 2.0 | 0.00 | 0.01 | 0.00 | 96 | 1011.5 |
| 20260905092306 | 72 | 291 | 1.0 | 2.0 | 0.00 | 0.01 | 0.00 | 96 | 1011.5 |
| 20260905091804 | 72 | 291 | 0.0 | 2.0 | 0.00 | 0.01 | 0.00 | 96 | 1011.4 |
| 20260905091304 | 72 | 291 | 0.0 | 3.0 | 0.00 | 0.01 | 0.00 | 95 | 1011.3 |
| 20260905085306 | 72 | 298 | 0.0 | 3.0 | 0.00 | 0.01 | 0.00 | 95 | 1011.3 |
| 20260905084304 | 72 | 308 | 0.0 | 3.0 | 0.00 | 0.01 | 0.00 | 95 | 1011.3 |
| 20260905083806 | 73 | 308 | 1.0 | 3.0 | 0.00 | 0.01 | 0.00 | 95 | 1011.3 |
| 20260905082307 | 73 | 313 | 1.0 | 5.0 | 0.00 | 0.01 | 0.00 | 95 | 1011.3 |
| 20260905081805 | 73 | 271 | 1.0 | 6.0 | 0.00 | 0.01 | 0.00 | 95 | 1011.4 |
| 20260905081305 | 73 | 281 | 0.0 | 6.0 | 0.00 | 0.01 | 0.00 | 95 | 1011.4 |
| 20260905080805 | 73 | 276 | 2.0 | 5.0 | 0.00 | 0.01 | 0.00 | 95 | 1011.3 |
| 20260905075804 | 73 | 275 | 0.0 | 2.0 | 0.00 | 0.01 | 0.00 | 95 | 1011.5 |
| 20260905074805 | 74 | 275 | 0.0 | 3.0 | 0.00 | 0.01 | 0.00 | 95 | 1011.5 |
| 20260905074305 | 74 | 272 | 0.0 | 3.0 | 0.00 | 0.01 | 0.00 | 95 | 1011.6 |
| 20260905072306 | 74 | 261 | 1.0 | 7.0 | 0.00 | 0.01 | 0.00 | 95 | 1011.4 |
| 20260905071304 | 74 | 285 | 2.0 | 7.0 | 0.00 | 0.01 | 0.00 | 96 | 1011.7 |
| 20260905070804 | 74 | 263 | 1.0 | 6.0 | 0.00 | 0.01 | 0.00 | 96 | 1011.7 |
| 20260905065805 | 74 | 264 | 2.0 | 6.0 | 0.00 | 0.01 | 0.00 | 96 | 1011.7 |
| 20260905065307 | 74 | 274 | 2.0 | 6.0 | 0.00 | 0.01 | 0.00 | 96 | 1011.7 |
| 20260905063304 | 74 | 266 | 2.0 | 8.0 | 0.00 | 0.01 | 0.00 | 96 | 1011.8 |
| 20260905062306 | 74 | 277 | 2.0 | 7.0 | 0.00 | 0.01 | 0.00 | 96 | 1011.9 |
| 20260905060804 | 74 | 298 | 0.0 | 1.0 | 0.00 | 0.01 | 0.00 | 96 | 1011.9 |
| 20260905060305 | 74 | 299 | 0.0 | 3.0 | 0.00 | 0.01 | 0.00 | 96 | 1011.9 |
| 20260905054305 | 74 | 284 | 1.0 | 5.0 | 0.00 | 0.01 | 0.00 | 96 | 1012.1 |
| 20260905053804 | 74 | 258 | 1.0 | 3.0 | 0.00 | 0.01 | 0.00 | 95 | 1012.1 |
| 20260905053304 | 75 | 257 | 1.0 | 3.0 | 0.00 | 0.01 | 0.00 | 95 | 1012.1 |
| 20260905051304 | 75 | 257 | 1.0 | 6.0 | 0.00 | 0.01 | 0.00 | 95 | 1012.3 |
| 20260905045805 | 75 | 263 | 1.0 | 9.0 | 0.00 | 0.01 | 0.00 | 95 | 1012.5 |
| 20260905045306 | 75 | 257 | 1.0 | 3.0 | 0.00 | 0.01 | 0.00 | 95 | 1012.5 |
| 20260905044305 | 75 | 266 | 1.0 | 3.0 | 0.00 | 0.01 | 0.00 | 95 | 1012.6 |
| 20260905043805 | 75 | 252 | 1.0 | 3.0 | 0.00 | 0.01 | 0.00 | 95 | 1012.6 |
| 20260905042804 | 75 | 255 | 2.0 | 7.0 | 0.00 | 0.02 | 0.00 | 95 | 1012.5 |
| 20260905034804 | 75 | 274 | 2.0 | 3.0 | 0.00 | 0.03 | 0.02 | 96 | 1012.9 |
| 20260905034304 | 74 | 273 | 1.0 | 3.0 | 0.00 | 0.04 | 0.02 | 96 | 1012.9 |
| 20260905033804 | 74 | 269 | 1.0 | 3.0 | 0.00 | 0.04 | 0.02 | 96 | 1012.9 |
| 20260905033304 | 74 | 287 | 0.0 | 0.0 | 0.00 | 0.10 | 0.02 | 96 | 1012.9 |
| 20260905030304 | 74 | 287 | 0.0 | 0.0 | 0.00 | 0.13 | 0.02 | 96 | 1012.9 |
| 20260905025306 | 75 | 287 | 0.0 | 0.0 | 0.00 | 0.13 | 0.02 | 96 | 1012.8 |
| 20260905024304 | 75 | 287 | 0.0 | 0.0 | 0.00 | 0.13 | 0.02 | 96 | 1012.7 |
| 20260905023806 | 75 | 287 | 0.0 | 0.0 | 0.00 | 0.13 | 0.02 | 96 | 1012.7 |
| 20260905023305 | 75 | 287 | 0.0 | 0.0 | 0.00 | 0.13 | 0.02 | 96 | 1012.7 |
| 20260905022306 | 75 | 287 | 0.0 | 0.0 | 0.00 | 0.13 | 0.02 | 95 | 1012.6 |
| 20260905021804 | 75 | 287 | 0.0 | 1.0 | 0.00 | 0.13 | 0.02 | 95 | 1012.6 |
| 20260905021304 | 75 | 287 | 0.0 | 1.0 | 0.00 | 0.13 | 0.02 | 95 | 1012.6 |
| 20260905020804 | 75 | 287 | 0.0 | 2.0 | 0.00 | 0.13 | 0.02 | 95 | 1012.7 |
| 20260905020304 | 76 | 287 | 1.0 | 2.0 | 0.00 | 0.13 | 0.02 | 95 | 1012.7 |
| 20260905015806 | 76 | 287 | 1.0 | 2.0 | 0.00 | 0.13 | 0.02 | 95 | 1012.6 |
| 20260905014804 | 76 | 287 | 0.0 | 0.0 | 0.00 | 0.13 | 0.02 | 95 | 1012.5 |
| 20260905014304 | 76 | 287 | 0.0 | 1.0 | 0.00 | 0.13 | 0.02 | 95 | 1012.5 |
| 20260905012803 | 76 | 287 | 0.0 | 1.0 | 0.00 | 0.13 | 0.02 | 94 | 1012.4 |
| 20260905011804 | 76 | 287 | 0.0 | 1.0 | 0.00 | 0.13 | 0.02 | 94 | 1012.3 |
| 20260905010804 | 76 | 287 | 0.0 | 0.0 | 0.00 | 0.13 | 0.02 | 94 | 1012.2 |
| 20260905010305 | 76 | 287 | 0.0 | 0.0 | 0.00 | 0.13 | 0.02 | 94 | 1012.3 |
| 20260905004304 | 76 | 287 | 0.0 | 1.0 | 0.00 | 0.13 | 0.02 | 95 | 1012.2 |
| 20260905003804 | 76 | 287 | 0.0 | 0.0 | 0.00 | 0.13 | 0.02 | 94 | 1012.1 |
| 20260905000804 | 77 | 287 | 0.0 | 1.0 | 0.00 | 0.13 | 0.02 | 91 | 1012.1 |
| 20260904235804 | 77 | 287 | 0.0 | 0.0 | 0.00 | 0.13 | 0.02 | 91 | 1012.2 |
| 20260904234804 | 78 | 287 | 0.0 | 0.0 | 0.00 | 0.13 | 0.02 | 91 | 1012.2 |
| 20260904234303 | 78 | 287 | 0.0 | 0.0 | 0.00 | 0.13 | 0.02 | 90 | 1012.3 |
| 20260904233305 | 78 | 287 | 0.0 | 0.0 | 0.00 | 0.13 | 0.02 | 89 | 1012.4 |
| 20260904232804 | 79 | 287 | 0.0 | 0.0 | 0.00 | 0.13 | 0.02 | 88 | 1012.5 |
| 20260904232306 | 79 | 287 | 0.0 | 0.0 | 0.00 | 0.13 | 0.02 | 88 | 1012.5 |
| 20260904231305 | 80 | 287 | 0.0 | 0.0 | 0.00 | 0.13 | 0.02 | 87 | 1012.4 |
| 20260904230804 | 80 | 287 | 0.0 | 0.0 | 0.00 | 0.13 | 0.02 | 87 | 1012.4 |
| 20260904230304 | 80 | 287 | 0.0 | 0.0 | 0.00 | 0.13 | 0.02 | 86 | 1012.5 |
| 20260904225804 | 80 | 287 | 0.0 | 2.0 | 0.00 | 0.13 | 0.02 | 85 | 1012.4 |
| 20260904225306 | 81 | 287 | 1.0 | 2.0 | 0.00 | 0.13 | 0.02 | 86 | 1012.4 |
| 20260904224804 | 80 | 287 | 1.0 | 2.0 | 0.00 | 0.13 | 0.02 | 86 | 1012.2 |
| 20260904224304 | 80 | 292 | 0.0 | 1.0 | 0.00 | 0.13 | 0.02 | 86 | 1012.1 |
| 20260904223805 | 80 | 292 | 0.0 | 1.0 | 0.00 | 0.13 | 0.02 | 87 | 1012.2 |
| 20260904222805 | 80 | 292 | 0.0 | 1.0 | 0.00 | 0.13 | 0.02 | 85 | 1012.4 |
| 20260904221804 | 81 | 292 | 0.0 | 0.0 | 0.00 | 0.13 | 0.02 | 84 | 1012.6 |
| 20260904221304 | 81 | 292 | 0.0 | 0.0 | 0.00 | 0.13 | 0.02 | 85 | 1012.7 |
| 20260904213304 | 82 | 292 | 1.0 | 2.0 | 0.00 | 0.13 | 0.02 | 79 | 1012.8 |
| 20260904212804 | 82 | 292 | 0.0 | 2.0 | 0.00 | 0.13 | 0.02 | 80 | 1012.9 |
| 20260904211805 | 82 | 292 | 0.0 | 1.0 | 0.00 | 0.13 | 0.02 | 80 | 1012.8 |
| 20260904210304 | 83 | 292 | 0.0 | 2.0 | 0.00 | 0.13 | 0.02 | 77 | 1013.0 |
| 20260904205804 | 84 | 292 | 1.0 | 2.0 | 0.00 | 0.13 | 0.02 | 74 | 1013.1 |
| 20260904205305 | 84 | 292 | 1.0 | 3.0 | 0.00 | 0.13 | 0.02 | 74 | 1013.1 |
| 20260904204804 | 84 | 292 | 0.0 | 3.0 | 0.00 | 0.13 | 0.02 | 73 | 1013.1 |
| 20260904203305 | 85 | 269 | 0.0 | 5.0 | 0.00 | 0.13 | 0.02 | 71 | 1013.4 |
| 20260904202804 | 85 | 274 | 2.0 | 5.0 | 0.00 | 0.13 | 0.02 | 69 | 1013.3 |
| 20260904202306 | 85 | 296 | 2.0 | 5.0 | 0.00 | 0.13 | 0.02 | 70 | 1013.4 |
| 20260904201804 | 85 | 317 | 3.0 | 7.0 | 0.00 | 0.13 | 0.02 | 70 | 1013.4 |
| 20260904193804 | 88 | 280 | 2.0 | 6.0 | 0.00 | 0.13 | 0.02 | 67 | 1013.1 |
| 20260904191805 | 87 | 0 | 1.0 | 5.0 | 0.00 | 0.13 | 0.02 | 66 | 1013.5 |